Cloud_Cover
0 0 0 0 0 0 0 0 0 0 0 0 0 0 0 0 0 0 0 0 0 0 0 0 0 0 0 0 0 0 0 0 0 0 0 0 0 0 0 0 0 0 0 0 0 0 0 0 0 0 0 0 0 0 0 0 0 0 0 0 0 0 0 0 0 8 32 68 88 92 92 80 64 48 44 12 8 36 92 76 56 36 12 12 56 92 92 92 68 36 20 48 68 88 92 76 56 44 32 12 12 32 64
0 0 0 0 0 0 0 0 0 0 0 0 0 0 0 0 0 0 0 0 0 0 0 0 0 0 0 0 0 0 0 0 0 0 0 0 0 0 0 0 0 0 0 0 0 0 0 0 0 0 0 0 0 0 0 0 0 0 0 0 0 0 12 8 0 0 12 48 64 68 68 32 12 12 12 8 20 48 92 92 92 88 80 80 88 92 92 92 64 24 12 20 36 56 68 48 44 32 8 8 8 12 24
0 0 0 0 0 0 0 0 0 0 0 0 0 0 0 0 0 0 0 0 0 0 0 0 0 0 0 0 0 0 0 0 0 0 0 0 0 0 0 0 0 0 0 0 0 0 0 0 0 0 0 0 0 0 0 0 0 0 0 0 0 8 36 12 0 0 0 24 64 88 88 24 0 0 0 20 32 48 92 92 92 92 92 92 92 92 92 88 48 20 44 24 32 36 36 32 32 36 44 20 20 24 32
0 0 0 0 0 0 0 0 0 0 0 0 0 0 0 0 0 0 0 0 0 0 0 0 0 0 0 0 0 0 0 0 0 0 0 0 0 0 0 0 0 0 0 0 0 0 0 0 0 0 0 0 0 0 0 0 0 0 0 0 0 0 0 12 12 8 8 8 12 36 92 56 20 0 0 8 32 48 56 68 88 92 92 80 88 92 80 76 36 8 12 20 20 12 12 8 8 12 24 32 48 76 88
0 0 0 0 0 0 0 0 0 0 0 0 0 0 0 0 0 0 0 0 0 0 0 0 0 0 0 0 0 0 0 0 0 0 0 0 0 0 0 0 0 0 0 0 0 0 0 0 0 0 0 0 0 0 0 0 0 0 0 0 0 0 0 0 0 0 0 8 12 24 56 24 8 0 0 0 8 24 64 88 80 68 80 88 88 88 88 92 48 0 0 0 0 0 12 0 0 8 8 24 64 88 64
0 0 0 0 0 0 0 0 0 0 0 0 0 0 0 0 0 0 0 0 0 0 0 0 0 0 0 0 0 0 0 0 0 0 0 0 0 0 0 0 0 0 0 0 0 0 0 0 0 0 0 0 0 0 0 0 0 0 0 0 24 36 0 0 0 0 0 0 0 8 20 24 48 48 0 8 8 8 20 20 56 88 64 64 68 76 76 24 0 0 0 0 0 0 0 0 0 8 36 20 44 64 24
0 0 0 0 0 0 0 0 0 0 0 0 0 0 0 0 0 0 0 0 0 0 0 0 0 0 0 0 0 0 0 0 0 0 0 0 0 0 0 0 0 0 0 0 0 0 0 0 0 0 0 0 0 0 0 0 0 0 0 0 36 56 0 0 0 0 0 0 0 0 0 8 48 92 92 64 32 12 24 32 20 32 92 64 36 20 24 8 0 0 0 0 0 0 0 0 0 0 0 0 0 12 44
0 0 0 0 0 12 48 12 0 0 0 0 0 0 0 0 0 0 0 0 0 0 0 0 0 0 0 0 0 0 0 0 0 0 0 0 0 0 0 0 0 0 0 0 0 0 0 0 0 0 0 0 0 0 0 0 0 0 0 0 12 24 8 0 0 0 0 0 0 0 0 0 0 32 92 92 48 20 48 48 64 76 76 36 36 36 12 44 44 20 0 0 0 0 0 0 0 0 0 0 0 0 0
0 0 0 0 48 92 92 20 0 0 0 0 0 0 0 0 0 0 0 0 0 0 0 0 0 0 0 0 0 0 0 0 0 0 0 0 0 0 0 0 0 0 0 0 0 0 0 0 0 0 0 0 0 0 0 0 0 0 0 0 0 0 0 0 0 0 0 0 0 0 0 0 8 20 44 44 48 44 24 36 36 44 64 12 0 8 32 32 36 32 12 8 0 0 0 0 0 0 0 0 0 0 0
0 0 0 24 64 92 92 20 0 0 0 0 0 0 0 0 0 0 0 0 0 0 0 0 0 0 0 0 0 0 0 0 0 0 0 0 0 0 0 0 0 0 0 0 0 0 0 0 0 0 0 0 0 0 0 0 0 0 0 0 0 0 0 0 0 0 0 12 8 0 0 0 0 8 0 8 36 64 20 12 8 0 0 0 0 0 0 0 0 0 0 0 0 0 0 0 0 0 0 0 0 0 0
0 8 24 76 92 92 88 20 0 0 0 0 0 0 0 0 0 0 0 0 0 0 0 0 0 0 0 0 0 0 0 0 0 0 0 0 0 0 0 0 0 0 0 0 0 0 0 0 0 0 0 0 0 0 0 0 0 0 0 0 0 0 0 0 0 0 0 0 0 0 0 0 0 8 8 0 0 20 64 20 0 0 0 0 0 0 0 0 0 0 0 0 0 0 0 0 0 0 0 0 0 0 0
0 0 12 68 92 92 92 36 12 8 0 0 0 0 0 0 0 0 0 0 0 0 0 0 0 0 0 0 0 0 0 0 0 0 0 0 0 0 0 0 0 0 0 0 0 0 0 0 0 0 0 0 0 0 0 0 0 0 0 0 0 0 0 0 0 0 0 0 0 0 0 0 0 8 8 0 0 0 0 20 12 0 0 0 0 0 0 0 0 0 0 0 0 0 0 0 0 0 0 0 0 0 0
0 8 36 56 80 92 88 92 56 20 0 0 0 0 0 0 0 0 0 0 0 0 0 0 0 0 0 0 0 0 0 0 0 0 0 0 0 0 0 0 0 0 0 0 0 0 0 0 0 0 0 0 0 0 0 0 0 0 0 0 0 0 0 0 0 0 0 0 0 0 0 0 0 0 8 8 8 0 0 0 0 0 0 0 0 0 0 0 0 0 0 0 0 0 0 0 0 0 0 0 0 0 0
0 0 0 68 92 92 80 80 44 0 0 0 0 0 0 0 0 0 0 0 0 0 0 0 0 0 0 0 0 0 0 0 0 0 0 0 0 0 0 0 0 0 0 0 0 0 0 0 0 0 0 0 0 0 0 0 0 0 0 0 0 0 0 0 0 0 0 0 0 0 0 0 0 0 0 8 12 8 0 0 0 0 0 0 0 0 0 0 0 0 0 0 0 0 0 0 0 0 0 0 0 0 0
0 0 0 44 64 76 92 44 20 0 0 0 0 0 0 0 0 0 0 0 0 0 0 0 0 0 0 0 0 0 0 0 0 0 0 0 0 0 0 0 0 0 0 0 0 0 0 0 0 0 0 0 0 0 0 0 0 0 0 0 0 0 0 0 0 0 0 0 0 0 0 0 0 0 8 8 12 12 0 0 0 0 0 0 0 0 0 0 0 0 0 0 0 0 0 0 0 0 0 0 0 0 0
0 0 0 8 12 24 64 20 12 12 0 0 0 0 0 0 0 0 0 0 0 0 0 0 0 0 0 0 0 0 0 0 0 0 0 0 0 0 0 0 0 0 0 0 0 0 0 0 0 0 0 0 0 0 0 0 0 0 0 0 0 0 0 0 0 0 0 0 0 0 0 0 0 12 32 12 0 0 0 0 0 0 0 0 0 0 0 0 0 0 0 0 0 0 0 0 0 0 0 0 0 0 0
0 0 0 0 0 0 0 0 8 12 0 0 0 0 0 0 0 0 0 0 0 0 0 0 0 0 0 0 0 0 0 8 8 0 8 0 0 0 0 0 0 0 0 0 0 0 0 0 0 0 0 0 0 0 0 0 0 0 0 0 0 0 0 0 0 0 0 0 0 0 0 0 20 36 44 12 0 0 0 0 0 0 0 0 0 0 0 0 0 0 0 0 0 0 0 0 0 0 0 0 0 0 0
0 0 0 0 0 0 0 0 0 0 0 0 0 0 0 0 0 0 0 0 0 0 0 0 0 0 0 0 0 0 0 8 8 0 12 8 8 0 0 0 0 0 0 0 0 0 0 0 0 0 0 0 0 0 0 0 0 0 0 0 0 0 0 0 0 0 0 0 0 12 44 12 24 48 32 24 12 0 0 0 0 0 0 0 0 0 0 0 0 0 0 0 0 0 0 0 0 0 0 0 0 0 0
0 0 0 0 0 0 0 0 0 0 0 0 0 0 8 8 8 0 0 0 0 0 0 0 0 0 0 0 0 0 0 0 0 0 0 8 8 0 0 0 0 0 0 0 0 0 0 0 0 0 0 0 0 0 0 0 0 0 0 0 0 0 0 0 0 0 0 0 0 20 76 32 20 20 20 24 12 0 0 0 0 0 0 0 0 0 0 0 0 0 0 0 0 0 0 0 0 0 0 0 0 0 0
0 0 0 0 0 0 0 0 0 0 0 0 0 0 8 12 12 12 8 8 8 8 12 12 12 8 8 0 0 0 0 0 0 0 0 0 0 0 0 0 0 0 0 0 0 0 0 0 0 0 0 0 0 0 0 0 0 0 0 0 0 0 0 0 0 0 0 0 0 8 32 20 8 0 0 0 0 0 0 0 0 0 0 0 0 0 0 0 0 0 0 0 0 0 0 0 0 0 0 0 0 0 0
0 12 36 8 0 0 0 0 0 0 0 0 0 0 0 0 8 12 20 20 12 20 20 24 36 44 44 12 0 0 0 0 0 0 0 0 0 0 0 0 0 0 0 0 0 0 0 0 0 0 0 0 0 0 0 0 0 0 0 0 0 0 0 0 0 0 0 0 0 0 8 0 0 0 0 0 0 0 0 0 0 0 0 0 0 0 0 0 0 0 0 0 0 0 0 0 0 0 0 0 0 0 0
20 48 64 20 0 0 0 0 0 0 0 0 0 0 0 0 0 8 12 12 24 32 24 32 48 68 68 20 0 0 0 0 0 0 0 0 0 0 0 0 0 0 0 0 0 0 0 0 0 0 0 0 0 0 0 0 0 0 0 0 0 0 0 0 0 0 0 0 0 0 0 0 0 0 0 0 0 0 0 0 0 0 0 0 0 0 0 0 0 0 0 0 0 0 0 0 0 0 0 0 0 0 0
32 56 68 64 56 36 0 0 0 0 0 0 0 0 0 0 0 0 0 12 24 36 32 32 44 64 68 24 8 8 8 8 8 0 0 0 0 0 0 0 0 0 0 0 0 0 0 0 0 0 0 0 0 0 0 0 0 0 0 0 0 0 0 0 0 0 0 0 0 0 0 0 0 0 0 0 0 0 0 0 0 0 0 0 0 0 0 0 0 0 0 0 0 0 0 0 0 0 0 0 0 0 0
48 64 76 80 80 76 48 20 0 0 0 0 0 0 0 0 0 0 0 0 8 20 32 32 48 68 76 64 36 20 24 20 20 12 8 8 8 8 8 8 8 0 0 0 0 0 0 0 0 0 0 0 0 0 0 0 0 0 0 0 0 0 0 0 0 0 0 0 0 0 0 0 0 0 0 0 0 0 0 0 0 0 0 0 0 0 0 0 0 0 0 0 0 0 0 0 0 0 0 0 0 0 0
64 68 76 80 80 80 76 32 8 0 0 32 20 0 0 0 0 0 0 0 0 8 32 36 48 64 76 76 64 44 36 32 32 24 20 12 8 8 8 8 8 0 0 0 0 0 0 0 0 0 0 0 0 0 0 0 0 0 0 0 0 0 0 0 0 0 0 0 0 0 0 0 0 0 0 0 0 0 0 0 0 0 0 0 0 0 0 0 0 0 0 0 0 0 0 0 0 0 0 0 0 0 0
56 64 76 80 80 76 76 44 12 0 0 12 12 8 0 0 0 0 0 0 0 0 8 8 24 48 68 64 56 48 44 44 36 32 24 20 12 12 12 8 8 8 0 0 0 0 0 0 0 0 0 0 0 0 0 0 0 0 0 0 0 0 0 0 0 0 0 0 0 0 0 0 0 0 0 0 0 0 0 0 0 0 0 0 0 0 8 8 0 0 0 0 0 0 0 0 0 0 0 0 0 0 0
24 32 32 64 56 48 80 68 32 0 0 0 32 44 0 0 0 0 0 0 0 0 0 0 0 20 56 48 48 48 56 48 44 36 32 24 20 12 12 12 8 8 8 8 8 8 0 0 0 0 0 0 0 8 8 0 0 0 0 0 0 0 0 0 0 0 0 0 0 0 0 0 0 0 0 0 0 0 0 0 0 0 0 0 0 0 8 8 8 0 0 0 8 8 0 8 8 0 0 0 0 0 0
8 8 12 20 24 36 80 80 48 12 0 0 44 76 36 8 0 0 0 0 0 0 0 0 0 0 8 44 32 20 64 56 56 44 36 32 24 24 20 20 12 12 12 12 12 8 8 0 0 0 0 0 0 0 8 0 0 0 0 0 0 0 0 0 0 0 0 0 0 0 0 0 0 0 0 0 0 0 0 0 0 0 0 0 0 0 8 8 8 8 0 8 8 8 8 8 8 8 0 0 0 0 0
0 0 0 0 8 24 80 88 80 64 12 0 44 88 80 32 8 0 0 0 0 0 0 0 0 0 0 0 0 0 0 48 64 56 48 44 44 36 24 20 20 20 20 20 20 12 12 8 8 0 0 0 0 0 0 8 8 0 0 0 0 0 0 0 0 0 0 0 0 0 0 0 0 0 0 0 0 0 0 0 0 0 0 0 0 0 12 12 12 8 0 0 8 12 8 12 8 8 8 8 0 0 0
0 0 0 0 0 8 24 68 68 48 44 24 48 88 88 76 32 0 0 0 0 0 0 0 0 0 0 0 0 0 0 8 36 68 68 56 48 48 32 24 20 20 20 20 20 20 20 12 12 8 0 8 8 0 0 8 8 8 8 8 0 0 0 0 8 8 0 0 0 0 0 0 0 0 0 0 0 0 0 0 0 0 0 0 0 8 12 12 12 12 8 8 8 12 12 12 12 8 8 8 8 8 0
0 0 0 0 0 0 0 12 24 44 44 48 36 44 88 88 48 12 0 0 0 0 0 0 0 0 0 0 0 0 0 0 0 12 68 64 64 64 48 32 20 20 20 20 20 24 20 20 20 12 8 12 12 12 8 8 12 12 8 8 8 0 0 0 0 0 12 0 0 0 0 0 0 0 0 0 0 0 0 0 0 0 8 8 8 8 12 20 20 12 12 12 12 12 12 12 12 12 12 12 8 8 0
0 0 0 0 0 0 0 0 0 8 20 24 20 24 76 76 56 32 0 0 0 0 0 0 0 0 0 0 0 0 0 0 0 0 0 48 68 68 64 36 32 24 24 24 24 24 24 24 20 20 20 20 12 12 12 12 12 12 12 8 8 0 0 0 0 20 92 24 0 0 0 0 0 0 0 0 0 0 0 0 0 0 8 12 12 8 8 20 20 20 20 12 12 20 12 12 12 12 12 12 8 8 8
0 0 0 0 0 0 0 0 0 0 0 0 0 0 20 12 12 8 0 0 0 0 0 0 0 0 0 0 0 0 0 0 0 0 0 0 20 48 64 56 48 36 36 36 32 32 24 24 32 24 24 24 20 20 12 20 20 20 12 8 8 0 0 0 0 8 36 24 12 0 0 0 0 0 0 0 0 0 0 0 0 8 12 12 12 12 12 20 20 20 20 12 12 12 20 20 20 12 12 12 12 12 8
0 0 0 0 0 0 0 0 0 0 0 0 0 0 0 0 0 0 0 0 0 0 0 0 0 0 0 0 0 0 0 0 0 0 0 0 0 0 0 0 20 44 36 32 36 44 44 36 36 36 32 32 24 24 20 20 20 20 12 8 8 0 0 0 0 0 0 12 12 0 0 0 0 0 0 0 0 0 0 0 8 8 12 20 20 20 12 20 24 24 20 12 12 20 20 20 20 12 12 12 12 12 20
0 0 0 0 0 0 0 0 0 0 0 0 0 0 0 0 0 0 0 0 0 0 0 0 0 0 0 0 0 0 0 0 0 0 0 0 0 0 0 0 0 0 0 0 8 24 44 48 48 36 20 20 12 20 24 24 24 24 20 8 8 0 0 0 0 0 0 0 20 24 0 0 0 0 0 0 0 0 8 8 12 12 12 20 20 20 20 20 24 24 24 20 20 20 20 20 20 20 12 20 12 20 24
0 0 0 0 0 0 0 0 0 0 0 0 0 0 0 0 0 0 0 0 0 0 0 0 0 0 0 0 0 0 0 0 0 0 0 0 0 0 0 0 0 0 0 0 0 0 0 12 24 24 8 8 0 0 0 12 20 12 20 12 8 8 8 0 0 0 0 0 0 0 0 0 0 0 0 0 0 0 8 12 12 12 20 20 20 20 24 24 24 24 20 20 20 20 20 20 20 20 20 20 20 20 12
0 0 0 0 0 0 0 0 0 0 0 0 0 0 0 0 0 0 0 0 0 0 0 0 0 0 0 0 0 0 0 0 0 0 0 0 0 0 0 0 0 0 0 0 0 0 0 0 0 0 0 0 0 0 0 0 0 8 24 20 12 8 8 0 0 0 0 0 0 0 0 0 0 0 0 0 0 8 8 12 12 20 24 24 24 24 24 32 24 24 20 20 20 20 20 20 20 20 20 20 20 20 20
0 0 0 0 0 0 0 0 0 0 0 0 0 0 0 0 0 0 0 0 0 0 0 0 0 0 0 0 0 0 0 0 0 0 0 0 0 0 0 0 0 0 0 0 0 0 0 0 0 0 0 0 0 0 0 0 0 8 24 24 20 12 12 8 0 0 0 0 0 0 0 0 0 0 8 8 8 8 12 20 20 24 24 24 24 24 24 32 32 32 24 24 24 24 20 24 24 24 24 24 24 20 20
0 0 0 0 0 0 0 0 0 0 0 0 0 0 0 0 0 0 0 0 0 0 0 0 0 0 0 0 0 0 0 0 0 0 0 0 0 0 0 0 0 0 0 0 0 0 0 0 0 0 0 0 0 0 0 0 0 8 32 36 32 24 24 20 8 0 0 0 0 0 0 0 0 8 12 12 12 12 20 24 24 24 32 32 32 32 32 32 32 32 36 32 32 32 24 24 24 24 24 24 24 24 24
8 0 0 0 0 0 0 0 0 0 0 0 0 0 0 0 0 0 0 0 0 0 0 0 0 0 0 0 0 0 0 0 0 0 0 0 0 0 0 0 0 0 0 0 0 0 0 0 0 0 0 0 0 0 0 0 0 0 20 36 44 36 32 20 12 8 0 0 0 0 0 0 8 12 20 20 20 20 24 24 24 24 32 32 32 32 32 32 32 32 36 36 36 36 32 32 32 32 32 32 32 32 32
8 8 0 0 0 0 0 0 0 0 0 0 0 0 0 0 0 0 0 0 0 0 0 0 0 0 0 0 0 0 0 0 0 0 0 0 0 0 0 0 0 0 0 0 0 0 0 0 0 0 0 0 0 0 0 0 0 0 0 32 44 36 32 20 12 8 0 0 0 0 8 8 8 8 12 20 20 20 24 24 24 24 32 32 24 24 24 24 32 32 32 36 36 36 36 36 36 36 36 36 36 32 32
12 12 8 0 0 0 8 0 0 0 0 0 0 0 0 0 0 0 0 0 0 0 0 0 0 0 0 0 0 0 0 0 0 0 0 0 0 0 0 0 0 0 0 0 0 0 0 0 0 0 0 0 0 0 0 0 0 0 0 12 20 24 24 20 20 12 8 12 8 8 8 0 0 8 8 12 12 8 12 20 24 24 24 24 24 20 12 20 24 32 32 36 36 36 36 36 36 36 36 36 36 36 36
12 8 8 8 8 8 0 0 0 0 0 0 0 0 0 0 8 8 12 8 0 0 0 0 0 0 0 0 0 0 0 0 0 0 0 0 0 0 0 0 0 0 0 0 0 0 0 0 0 0 0 0 0 0 0 0 0 0 0 0 0 8 20 12 12 12 12 20 20 12 8 8 8 8 8 8 0 0 0 8 20 20 20 20 12 12 0 8 20 32 32 36 36 36 36 36 36 36 36 44 44 44 36
12 12 20 20 12 12 8 0 0 8 8 8 8 8 20 32 44 48 56 44 24 8 12 12 12 12 8 0 0 0 0 0 0 0 0 0 0 0 0 0 0 0 0 0 0 0 0 0 0 0 0 0 0 0 0 0 0 0 0 0 0 0 0 12 24 24 12 32 32 24 20 12 8 8 8 0 0 0 0 0 8 8 8 8 8 8 0 8 12 20 32 32 32 32 32 36 36 44 44 44 44 44 44
24 24 24 20 20 12 12 8 8 8 8 8 0 8 24 44 56 76 76 76 48 32 24 20 24 32 32 12 0 0 0 0 0 0 0 0 0 0 0 0 0 0 0 0 0 0 0 0 0 0 0 0 0 0 0 0 0 0 0 0 0 8 8 12 12 20 12 24 24 20 12 12 8 0 0 0 0 0 0 0 0 8 8 0 0 0 0 12 20 24 24 32 32 24 32 32 36 44 44 44 44 44 44
32 32 24 24 20 20 20 12 12 8 8 8 24 56 68 68 64 64 64 80 76 56 48 44 48 56 48 36 24 12 0 8 8 0 0 0 8 8 0 0 0 0 0 0 0 0 0 0 0 0 0 0 0 0 0 0 0 0 0 0 8 12 12 12 12 20 32 32 32 24 20 20 20 8 0 0 8 12 8 8 8 0 0 0 0 0 0 12 24 36 36 32 32 32 24 32 36 44 48 48 44 44 48
44 36 36 32 24 24 24 20 12 12 8 8 20 32 32 76 76 56 56 64 68 76 88 80 68 56 56 48 36 24 12 20 20 20 20 20 20 20 12 8 0 0 0 0 0 0 0 0 0 0 0 0 0 0 0 0 0 0 8 8 8 8 8 8 8 8 8 32 36 36 24 32 32 32 24 20 20 24 20 12 8 0 8 0 0 0 0 8 20 32 44 36 36 32 24 24 32 44 48 56 56 48 48
44 44 44 36 32 32 24 20 20 12 12 8 8 8 8 20 56 80 56 44 56 80 92 92 76 56 44 44 36 32 24 44 48 48 44 32 20 12 8 0 0 0 0 0 8 8 8 0 0 0 0 0 0 0 0 8 8 12 20 20 12 8 0 0 0 0 0 8 8 12 32 36 44 48 56 44 44 36 32 24 20 20 32 24 12 8 12 12 20 24 32 44 44 36 24 32 32 44 64 64 64 56 48
44 44 44 36 32 32 24 20 12 12 8 8 8 8 8 8 32 68 88 80 76 68 88 92 92 76 48 36 32 32 36 76 88 88 80 44 12 0 0 0 0 0 0 0 0 0 8 0 0 0 0 0 0 0 12 12 20 24 20 12 8 0 0 0 0 0 0 0 0 0 8 8 36 68 76 68 68 64 48 44 36 44 56 48 44 32 32 20 24 36 44 44 44 48 36 44 44 36 48 64 68 64 56
36 44 44 32 24 20 20 12 8 0 0 8 8 8 8 24 64 88 92 80 80 88 76 64 56 56 68 44 24 32 88 92 92 92 92 36 12 8 0 0 8 8 0 0 0 0 0 0 0 0 0 0 0 8 12 20 20 12 12 0 0 0 0 0 0 0 0 0 0 0 0 0 8 24 76 80 80 76 76 64 48 48 64 64 64 48 48 32 24 32 44 48 56 56 64 56 56 48 56 64 68 68 68
32 24 20 12 8 8 8 8 8 8 8 8 8 12 44 56 68 76 80 88 92 92 80 88 76 68 92 80 48 36 76 92 92 92 92 24 24 48 76 80 44 0 0 0 0 0 0 0 0 0 0 0 8 8 8 8 0 0 0 0 0 0 0 0 0 0 0 0 0 0 0 0 0 0 20 64 76 76 92 92 88 76 68 68 64 64 56 48 44 48 64 64 56 56 68 68 68 64 64 68 64 64 68
12 12 8 8 8 0 8 8 12 12 12 12 8 0 8 8 20 24 12 12 8 32 92 92 76 64 64 88 92 80 48 88 92 92 92 64 44 56 92 92 88 56 0 0 0 0 0 0 0 0 8 8 8 8 0 0 0 0 0 0 0 0 0 0 0 0 0 0 0 0 0 0 0 0 12 24 36 64 80 92 92 92 88 76 68 64 64 64 64 68 76 76 68 64 68 76 76 68 76 76 76 68 76
8 8 8 8 12 12 20 20 20 12 12 12 12 8 0 0 8 12 24 12 8 8 12 48 64 56 44 36 36 32 8 12 48 88 92 92 92 76 44 80 92 76 12 0 0 0 8 12 12 12 20 20 8 0 0 0 0 0 0 0 0 0 0 0 0 0 0 0 0 0 0 0 0 8 24 32 36 44 64 88 88 88 92 92 80 76 76 64 64 68 76 80 80 80 76 76 76 76 80 80 80 76 80
24 24 24 24 24 20 20 20 20 12 12 12 12 12 12 12 8 8 8 68 92 88 64 88 88 76 56 20 20 24 36 24 64 92 92 92 92 92 92 32 36 76 92 92 48 12 20 20 24 24 12 12 8 0 0 0 0 0 0 0 0 0 0 0 0 0 0 0 0 0 0 0 0 0 12 32 36 36 44 56 56 64 76 92 92 92 88 92 80 68 76 76 80 80 80 88 80 80 80 80 80 88 80
36 32 32 24 20 20 20 20 20 20 20 20 20 20 20 20 12 12 20 76 92 88 64 76 80 80 56 24 20 36 80 64 76 92 92 92 92 92 88 92 92 92 92 92 92 88 80 44 24 20 8 8 8 0 0 0 0 0 0 0 0 0 0 0 0 0 0 0 0 0 0 0 0 0 0 32 48 64 68 56 64 68 68 68 80 92 88 92 88 88 92 92 92 92 92 92 88 88 88 88 80 80 80
24 32 44 36 32 32 32 36 32 32 24 24 20 20 20 20 56 92 92 92 92 92 92 92 80 64 48 24 56 92 88 92 92 80 56 32 32 32 12 68 88 92 92 76 48 48 88 36 24 12 0 0 8 12 0 0 0 0 0 0 0 0 0 0 0 0 0 0 0 0 0 0 0 8 8 12 32 64 80 76 88 88 64 76 76 80 88 80 88 92 92 92 92 92 92 88 80 88 88 88 88 80 88
32 56 68 64 56 56 68 64 56 36 24 24 20 24 24 76 92 92 92 92 88 80 88 92 92 92 92 92 92 88 56 56 56 56 44 24 20 20 24 24 44 68 92 88 48 12 12 8 24 36 20 8 8 20 32 36 20 0 0 0 0 0 0 0 0 0 0 0 0 0 0 0 0 12 12 20 24 36 68 80 88 92 92 80 80 88 92 92 92 92 92 92 92 92 92 92 80 76 92 88 88 88 80
8 24 80 76 68 68 76 68 64 56 56 56 56 68 92 80 80 92 92 92 92 88 48 88 92 92 92 76 80 88 56 36 32 24 24 20 20 20 24 24 24 32 56 48 36 24 32 32 56 80 92 32 8 8 24 36 32 8 0 0 0 0 0 0 0 0 0 0 0 0 0 0 0 0 20 24 32 36 36 44 68 92 92 92 92 92 92 92 92 92 92 92 92 92 92 92 92 92 92 92 92 88 80
8 20 64 68 64 64 80 68 76 88 92 92 92 92 92 76 68 80 92 92 92 92 92 92 92 88 64 76 80 88 76 44 36 32 12 12 12 12 12 12 8 8 0 8 20 44 80 92 56 36 76 56 32 12 0 8 12 8 0 0 0 0 0 0 0 0 0 0 0 0 0 0 0 0 0 8 12 24 32 8 24 64 80 88 92 80 68 88 92 92 92 92 92 92 92 92 92 92 92 92 92 92 88
8 8 24 36 36 44 56 80 92 88 76 68 80 88 68 64 80 92 92 92 92 92 92 92 92 88 68 68 68 76 76 68 48 32 20 20 12 12 0 0 0 8 8 20 32 44 64 80 68 56 92 92 92 68 12 0 0 0 0 0 0 0 0 0 0 0 0 0 0 0 0 0 0 0 0 0 0 8 8 8 0 0 20 64 76 76 68 64 76 80 88 92 92 92 92 92 92 92 92 92 92 92 92
0 0 0 0 24 44 32 64 68 68 64 64 68 56 20 36 64 80 92 92 92 92 92 92 88 80 76 80 80 80 88 88 64 32 12 24 32 24 0 0 12 24 48 56 56 64 76 64 44 48 88 92 92 88 76 20 0 0 0 0 0 0 0 0 0 0 0 0 0 0 0 0 0 0 0 0 0 0 0 0 0 0 0 44 68 80 92 76 56 44 56 88 92 92 92 92 92 92 92 92 92 92 92